KF5RM Weather Reports


Display with metric or nautical units.
time (UTC)temp
F
wind
direction
speed
MPH
gust
MPH
rain 1hr
in
rain 24hr
in
rain mn
in
humidity
%
barometer
mb
20260506144503 82 0 0.0 0.0 0.00 0.00 0.00 79 1010.1
20260506144004 82 129 0.0 6.0 0.00 0.00 0.00 81 1010.0
20260506143503 82 129 0.0 6.0 0.00 0.00 0.00 80 1009.9
20260506143003 82 0 0.0 0.0 0.00 0.00 0.00 81 1010.0
20260506142503 81 0 0.0 0.0 0.00 0.00 0.00 82 1009.9
20260506142004 81 0 0.0 0.0 0.00 0.00 0.00 82 1009.9
20260506141504 81 0 0.0 0.0 0.00 0.00 0.00 82 1009.9
20260506141003 80 0 0.0 0.0 0.00 0.00 0.00 82 1009.9
20260506140004 80 0 0.0 0.0 0.00 0.00 0.00 82 1009.7
20260506135504 80 0 0.0 0.0 0.00 0.00 0.00 82 1009.6
20260506135003 80 0 0.0 0.0 0.00 0.00 0.00 83 1009.6
20260506134503 80 0 0.0 0.0 0.00 0.00 0.00 82 1009.6
20260506134003 80 0 0.0 0.0 0.00 0.00 0.00 82 1009.6
20260506133503 80 0 0.0 0.0 0.00 0.00 0.00 82 1009.6
20260506133003 80 0 0.0 0.0 0.00 0.00 0.00 82 1009.5
20260506132503 80 0 0.0 0.0 0.00 0.00 0.00 82 1009.5
20260506131503 80 0 0.0 0.0 0.00 0.00 0.00 82 1009.7
20260506131003 80 0 0.0 0.0 0.00 0.00 0.00 82 1009.7
20260506125503 80 0 0.0 0.0 0.00 0.00 0.00 82 1009.3
20260506124004 80 0 0.0 0.0 0.00 0.00 0.00 82 1009.1
20260506123503 80 0 0.0 0.0 0.00 0.00 0.00 82 1009.0
20260506122003 80 0 0.0 0.0 0.00 0.00 0.00 82 1008.9
20260506121503 80 106 0.0 5.0 0.00 0.00 0.00 82 1008.8
20260506121003 80 106 0.0 5.0 0.00 0.00 0.00 82 1008.9
20260506120503 80 0 0.0 0.0 0.00 0.00 0.00 82 1008.8
20260506115503 80 85 0.0 1.0 0.00 0.00 0.00 82 1008.8
20260506115004 80 85 1.0 1.0 0.00 0.00 0.00 82 1008.7
20260506114004 80 100 1.0 8.0 0.00 0.00 0.00 82 1008.5
20260506113503 80 100 0.0 8.0 0.00 0.00 0.00 82 1008.6
20260506113003 80 0 0.0 0.0 0.00 0.00 0.00 83 1008.5
20260506112503 80 0 0.0 0.0 0.00 0.00 0.00 83 1008.6
20260506112003 80 150 0.0 1.0 0.00 0.00 0.00 83 1008.6
20260506111504 80 150 0.0 1.0 0.00 0.00 0.00 83 1008.5
20260506111003 80 0 0.0 0.0 0.00 0.00 0.00 83 1008.5
20260506110503 80 0 0.0 0.0 0.00 0.00 0.00 83 1008.5
20260506110004 80 0 0.0 0.0 0.00 0.00 0.00 83 1008.5
20260506105503 80 0 0.0 0.0 0.00 0.00 0.00 83 1008.4
20260506105003 80 0 0.0 0.0 0.00 0.00 0.00 82 1008.5
20260506104504 80 0 0.0 0.0 0.00 0.00 0.00 82 1008.4
20260506104004 80 0 0.0 0.0 0.00 0.00 0.00 82 1008.5
20260506103004 80 0 0.0 0.0 0.00 0.00 0.00 82 1008.4
20260506102503 80 0 0.0 0.0 0.00 0.00 0.00 81 1008.5
20260506101003 80 0 0.0 0.0 0.00 0.00 0.00 81 1008.2
20260506100004 80 0 0.0 0.0 0.00 0.00 0.00 81 1008.4
20260506095503 80 0 0.0 0.0 0.00 0.00 0.00 81 1008.2
20260506095003 80 0 0.0 0.0 0.00 0.00 0.00 81 1008.3
20260506094003 80 0 0.0 0.0 0.00 0.00 0.00 81 1008.3
20260506093504 80 0 0.0 0.0 0.00 0.00 0.00 81 1008.3
20260506093004 80 0 0.0 0.0 0.00 0.00 0.00 81 1008.2
20260506092503 80 0 0.0 0.0 0.00 0.00 0.00 81 1008.1
20260506092004 80 0 0.0 0.0 0.00 0.00 0.00 81 1008.1
20260506091504 80 0 0.0 0.0 0.00 0.00 0.00 81 1008.0
20260506091003 80 0 0.0 0.0 0.00 0.00 0.00 81 1008.0
20260506090004 80 0 0.0 0.0 0.00 0.00 0.00 81 1008.2
20260506085504 80 0 0.0 0.0 0.00 0.00 0.00 81 1008.3
20260506085003 80 0 0.0 0.0 0.00 0.00 0.00 81 1008.4
20260506084503 80 0 0.0 0.0 0.00 0.00 0.00 81 1008.2
20260506084003 80 0 0.0 0.0 0.00 0.00 0.00 81 1008.3
20260506083503 80 0 0.0 0.0 0.00 0.00 0.00 81 1008.2
20260506083004 80 0 0.0 0.0 0.00 0.00 0.00 81 1008.1
20260506082503 80 0 0.0 0.0 0.00 0.00 0.00 81 1008.1
20260506082004 81 0 0.0 0.0 0.00 0.00 0.00 80 1008.1
20260506081503 81 0 0.0 0.0 0.00 0.00 0.00 80 1008.1
20260506081003 81 0 0.0 0.0 0.00 0.00 0.00 80 1008.3
20260506080504 81 0 0.0 0.0 0.00 0.00 0.00 81 1008.3
20260506073503 81 0 0.0 0.0 0.00 0.00 0.00 81 1008.1
20260506073004 81 0 0.0 0.0 0.00 0.00 0.00 80 1008.2
20260506072502 81 0 0.0 0.0 0.00 0.00 0.00 81 1008.3
20260506072003 81 0 0.0 0.0 0.00 0.00 0.00 80 1008.4
20260506071502 81 0 0.0 0.0 0.00 0.00 0.00 80 1008.3
20260506071002 81 0 0.0 0.0 0.00 0.00 0.00 80 1008.2
20260506070502 81 0 0.0 0.0 0.00 0.00 0.00 80 1008.2
20260506062502 81 0 0.0 0.0 0.00 0.00 0.00 80 1008.1
20260506062003 81 0 1.0 0.0 0.00 0.00 0.00 80 1008.1
20260506061002 81 136 1.0 9.0 0.00 0.00 0.00 80 1008.1
20260506051002 82 142 0.0 8.0 0.00 0.00 0.00 77 1007.7
20260506050503 82 0 0.0 0.0 0.00 0.00 0.00 77 1007.8
20260506044503 83 146 2.0 9.0 0.00 0.00 0.00 75 1007.5
20260506044002 83 145 1.0 13.0 0.00 0.00 0.00 75 1007.5
20260506043502 84 145 0.0 13.0 0.00 0.00 0.00 74 1007.4
20260506043003 84 127 0.0 1.0 0.00 0.00 0.00 74 1007.5
20260506042502 84 122 0.0 1.0 0.00 0.00 0.00 73 1007.5
20260506041502 85 0 0.0 0.0 0.00 0.00 0.00 72 1007.6
20260506041002 85 0 0.0 0.0 0.00 0.00 0.00 71 1007.6
20260506040502 85 0 0.0 0.0 0.00 0.00 0.00 70 1007.4
20260506040003 85 135 0.0 5.0 0.00 0.00 0.00 70 1007.4
20260506035502 86 135 0.0 5.0 0.00 0.00 0.00 69 1007.4
20260506035002 86 0 0.0 0.0 0.00 0.00 0.00 68 1007.4
20260506034503 86 0 0.0 0.0 0.00 0.00 0.00 68 1007.4
20260506033502 87 0 0.0 0.0 0.00 0.00 0.00 67 1007.2
20260506033002 87 0 0.0 0.0 0.00 0.00 0.00 67 1007.1
20260506032502 87 0 0.0 0.0 0.00 0.00 0.00 66 1007.2
20260506032003 87 129 0.0 9.0 0.00 0.00 0.00 66 1007.1
20260506031502 88 129 0.0 9.0 0.00 0.00 0.00 65 1007.0
20260506030502 88 146 0.0 7.0 0.00 0.00 0.00 64 1006.7
20260506025502 89 147 1.0 1.0 0.00 0.00 0.00 63 1006.6
20260506025002 89 139 1.0 9.0 0.00 0.00 0.00 62 1006.5
20260506024002 90 132 1.0 9.0 0.00 0.00 0.00 61 1006.3
20260506023502 90 131 0.0 9.0 0.00 0.00 0.00 60 1006.2
20260506023002 90 129 0.0 8.0 0.00 0.00 0.00 59 1006.1
20260506022502 90 0 0.0 0.0 0.00 0.00 0.00 58 1006.0
20260506022002 91 0 0.0 0.0 0.00 0.00 0.00 57 1005.9
20260506021502 91 0 0.0 0.0 0.00 0.00 0.00 57 1005.8
20260506021002 91 139 0.0 1.0 0.00 0.00 0.00 56 1005.8
20260506020502 91 139 0.0 1.0 0.00 0.00 0.00 56 1005.8
20260506020003 92 0 0.0 0.0 0.00 0.00 0.00 56 1005.8
20260506015503 92 0 0.0 0.0 0.00 0.00 0.00 55 1005.6
20260506015002 92 124 0.0 8.0 0.00 0.00 0.00 55 1005.5
20260506014502 92 120 0.0 8.0 0.00 0.00 0.00 54 1005.4
20260506013502 93 121 1.0 9.0 0.00 0.00 0.00 54 1005.4
20260506013003 93 121 0.0 9.0 0.00 0.00 0.00 53 1005.2
20260506012502 93 134 0.0 1.0 0.00 0.00 0.00 52 1005.1
20260506012002 94 0 0.0 0.0 0.00 0.00 0.00 51 1005.0
20260506011502 94 0 0.0 0.0 0.00 0.00 0.00 50 1005.0
20260506011002 94 108 1.0 1.0 0.00 0.00 0.00 49 1005.0
20260506010502 95 127 1.0 7.0 0.00 0.00 0.00 48 1004.9
20260506010003 95 127 1.0 7.0 0.00 0.00 0.00 48 1004.8
20260506005503 95 129 1.0 10.0 0.00 0.00 0.00 48 1004.7
20260506005002 96 128 1.0 10.0 0.00 0.00 0.00 47 1004.5
20260506004503 96 125 1.0 13.0 0.00 0.00 0.00 47 1004.6
20260506004003 96 125 0.0 13.0 0.00 0.00 0.00 46 1004.6
20260506003502 96 0 0.0 0.0 0.00 0.00 0.00 46 1004.4
20260506003003 97 125 0.0 1.0 0.00 0.00 0.00 45 1004.5
20260506002502 97 125 0.0 1.0 0.00 0.00 0.00 45 1004.3
20260506001502 98 0 0.0 0.0 0.00 0.00 0.00 44 1004.4
20260506001002 98 0 1.0 0.0 0.00 0.00 0.00 44 1004.3
20260506000502 98 118 2.0 13.0 0.00 0.00 0.00 44 1004.4
20260506000003 98 126 1.0 13.0 0.00 0.00 0.00 43 1004.3
20260505235502 98 133 0.0 10.0 0.00 0.00 0.00 43 1004.3
20260505234502 100 124 1.0 11.0 0.00 0.00 0.00 42 1004.2
20260505234002 100 124 0.0 11.0 0.00 0.00 0.00 41 1004.3
20260505233502 100 126 0.0 3.0 0.00 0.00 0.00 40 1004.2
20260505232502 101 0 0.0 0.0 0.00 0.00 0.00 38 1004.3
20260505232003 101 0 0.0 0.0 0.00 0.00 0.00 38 1004.2
20260505231502 101 0 0.0 0.0 0.00 0.00 0.00 38 1004.3
20260505231003 101 0 0.0 0.0 0.00 0.00 0.00 38 1004.3
20260505230502 101 141 1.0 6.0 0.00 0.00 0.00 37 1004.3
20260505230003 101 141 0.0 6.0 0.00 0.00 0.00 37 1004.3
20260505225503 101 140 0.0 4.0 0.00 0.00 0.00 37 1004.4
20260505225002 101 0 0.0 0.0 0.00 0.00 0.00 37 1004.4
20260505224502 102 0 0.0 0.0 0.00 0.00 0.00 37 1004.4
20260505224003 102 0 0.0 0.0 0.00 0.00 0.00 37 1004.4
20260505223503 101 0 0.0 0.0 0.00 0.00 0.00 37 1004.4
20260505223003 101 0 0.0 0.0 0.00 0.00 0.00 36 1004.4
20260505222503 101 0 0.0 0.0 0.00 0.00 0.00 37 1004.5
20260505222003 101 0 0.0 0.0 0.00 0.00 0.00 37 1004.5
20260505221502 101 0 0.0 0.0 0.00 0.00 0.00 37 1004.5
20260505221002 101 0 0.0 0.0 0.00 0.00 0.00 37 1004.5
20260505220003 101 0 0.0 0.0 0.00 0.00 0.00 37 1004.6
20260505215003 101 0 0.0 0.0 0.00 0.00 0.00 36 1004.6
20260505214503 101 0 0.0 0.0 0.00 0.00 0.00 37 1004.7
20260505214003 101 0 0.0 0.0 0.00 0.00 0.00 38 1004.8
20260505213503 101 0 0.0 0.0 0.00 0.00 0.00 38 1004.9
20260505213003 101 0 0.0 0.0 0.00 0.00 0.00 39 1005.0
20260505212002 100 0 0.0 0.0 0.00 0.00 0.00 39 1005.0
20260505211502 100 0 0.0 0.0 0.00 0.00 0.00 40 1005.0
20260505211003 99 0 0.0 0.0 0.00 0.00 0.00 41 1005.2
20260505210003 100 0 0.0 0.0 0.00 0.00 0.00 41 1005.2
20260505205503 100 0 0.0 0.0 0.00 0.00 0.00 42 1005.3
20260505204503 99 0 0.0 0.0 0.00 0.00 0.00 41 1005.6
20260505203503 100 135 0.0 7.0 0.00 0.00 0.00 42 1005.7
20260505203003 100 135 0.0 7.0 0.00 0.00 0.00 42 1005.9
20260505202502 99 231 0.0 1.0 0.00 0.00 0.00 42 1005.9
20260505202003 99 231 0.0 1.0 0.00 0.00 0.00 41 1006.0
20260505201503 99 0 0.0 0.0 0.00 0.00 0.00 41 1006.1
20260505201003 99 0 0.0 0.0 0.00 0.00 0.00 43 1006.2
20260505200503 98 0 1.0 0.0 0.00 0.00 0.00 43 1006.5
20260505194502 97 0 0.0 0.0 0.00 0.00 0.00 45 1006.9
20260505194003 97 0 0.0 0.0 0.00 0.00 0.00 44 1007.0
20260505193502 96 0 0.0 0.0 0.00 0.00 0.00 46 1007.1
20260505193004 96 0 0.0 0.0 0.00 0.00 0.00 47 1007.4
20260505192003 96 135 1.0 7.0 0.00 0.00 0.00 47 1007.6
20260505191503 96 130 1.0 7.0 0.00 0.00 0.00 47 1007.7
20260505191002 96 124 0.0 6.0 0.00 0.00 0.00 46 1007.8
20260505185503 95 141 0.0 7.0 0.00 0.00 0.00 49 1007.9
20260505185002 95 141 0.0 7.0 0.00 0.00 0.00 49 1007.9
20260505184503 94 0 0.0 0.0 0.00 0.00 0.00 50 1008.0
20260505184003 94 0 0.0 0.0 0.00 0.00 0.00 50 1007.9
20260505183503 94 0 0.0 0.0 0.00 0.00 0.00 51 1007.9
20260505182502 94 0 0.0 0.0 0.00 0.00 0.00 52 1008.3
20260505182003 94 137 0.0 4.0 0.00 0.00 0.00 52 1008.4
20260505181003 93 202 0.0 1.0 0.00 0.00 0.00 53 1008.4
20260505180503 93 219 0.0 1.0 0.00 0.00 0.00 54 1008.4
20260505180004 92 97 0.0 1.0 0.00 0.00 0.00 53 1008.5
20260505174503 92 148 0.0 6.0 0.00 0.00 0.00 54 1008.8
20260505174002 92 0 0.0 0.0 0.00 0.00 0.00 54 1008.8
20260505173503 91 170 0.0 6.0 0.00 0.00 0.00 55 1008.7
20260505173004 91 172 0.0 6.0 0.00 0.00 0.00 56 1008.9
20260505172003 90 0 0.0 0.0 0.00 0.00 0.00 59 1008.9
20260505171503 90 131 0.0 5.0 0.00 0.00 0.00 59 1009.0
20260505171003 90 131 0.0 5.0 0.00 0.00 0.00 59 1009.1
20260505170503 89 0 0.0 0.0 0.00 0.00 0.00 60 1009.3
20260505170003 89 0 0.0 0.0 0.00 0.00 0.00 61 1009.1
20260505165503 89 0 0.0 0.0 0.00 0.00 0.00 62 1009.1
20260505165003 88 0 0.0 0.0 0.00 0.00 0.00 63 1009.2
20260505164502 87 0 0.0 0.0 0.00 0.00 0.00 64 1009.3
20260505164003 87 0 0.0 0.0 0.00 0.00 0.00 64 1009.4
20260505163503 86 0 0.0 0.0 0.00 0.00 0.00 65 1009.6
20260505163003 86 0 0.0 0.0 0.00 0.00 0.00 66 1009.5
20260505162503 86 0 0.0 0.0 0.00 0.00 0.00 67 1009.5
20260505162003 86 135 0.0 1.0 0.00 0.00 0.00 67 1009.7
20260505161503 86 135 0.0 1.0 0.00 0.00 0.00 67 1009.8
20260505161003 85 0 0.0 0.0 0.00 0.00 0.00 68 1009.9
20260505160503 85 0 0.0 0.0 0.00 0.00 0.00 69 1009.8
20260505153003 84 0 0.0 0.0 0.00 0.00 0.00 72 1009.7
20260505152003 83 133 0.0 6.0 0.00 0.00 0.00 73 1009.8
20260505151504 83 153 0.0 4.0 0.00 0.00 0.00 73 1009.8
20260505151003 82 153 0.0 4.0 0.00 0.00 0.00 74 1009.9
20260505150504 82 0 0.0 0.0 0.00 0.00 0.00 75 1009.8